Asheville, NC

5:48 AM EDT on May 25, 2018 (GMT -0400)
Asheville Regional

Weather History for KAVL - February, 2015

Change the Weather History Date:

Monday, February 16, 2015

  Actual Average Record
Temperature  
Mean Temperature 26 °F 40 °F  
Max Temperature 31 °F 51 °F 77 °F (2018)
Min Temperature 21 °F 30 °F 2 °F (1905)
Degree Days  
Heating Degree Days 39 24  
Month to date heating degree days 464 413  
Since 1 July heating degree days 2879 2940  
Cooling Degree Days 0 0  
Month to date cooling degree days 0 0  
Year to date cooling degree days 0 0  
Moisture  
Dew Point 12 °F    
Average Humidity 60    
Maximum Humidity 92    
Minimum Humidity 27    
Precipitation  
Precipitation 0.86 in 0.14 in 3.36 in (1990)
Month to date precipitation 1.86 2.15  
Year to date precipitation 4.92 5.82  
Snow  
Snow 1.20 in 0.00 in 8.30 in (1969)
Month to date snowfall 1.2 1.3  
Since 1 July snowfall 4.4 6.4  
Snow Depth 0.00 in    
Sea Level Pressure  
Sea Level Pressure 29.99 in    
Wind  
Wind Speed 10 mph (SE)    
Max Wind Speed 18 mph    
Max Gust Speed 25 mph    
Visibility 6 miles    
Events Rain , Snow    
T = Trace of Precipitation, MM = Missing Value Source: NWS Daily Summary

Daily Weather History Graph

Daily Weather History Graph

Search for Another Location

Airport or City:

Astronomy

Feb. 16, 2015 Rise Set
Actual Time 7:15 AM EST 6:13 PM EST
Civil Twilight 6:49 AM EST 6:39 PM EST
Nautical Twilight 6:20 AM EST 7:08 PM EST
Astronomical Twilight 5:50 AM EST 7:38 PM EST
Moon 5:05 AM EST (2/16) 3:53 PM EST (2/16)
Length of Visible Light 11h 49m
Length of Day
10h 57m
Waning Crescent, 8% of the Moon is Illuminated
Feb 16
Waning Crescent
Feb 18
New
Feb 25
First Quarter
Mar 5
Full
Mar 13
Last Quarter

Hourly Weather History & Observations

Time (EST) Temp. Windchill Dew Point Humidity Pressure Visibility Wind Dir Wind Speed Gust Speed Precip Events Conditions
12:54 AM 24.1 °F 19.7 °F -2.9 °F 31% 30.25 in 10.0 mi SSE 3.5 mph - N/A   Overcast
1:54 AM 25.0 °F 18.1 °F -0.9 °F 33% 30.24 in 10.0 mi SSE 5.8 mph - N/A   Overcast
2:54 AM 25.0 °F 17.1 °F -2.9 °F 30% 30.20 in 10.0 mi SSE 6.9 mph - N/A   Overcast
3:54 AM 24.1 °F 13.7 °F -4.0 °F 29% 30.19 in 10.0 mi SE 10.4 mph - N/A   Overcast
4:54 AM 25.0 °F 14.2 °F -5.1 °F 27% 30.17 in 10.0 mi SE 11.5 mph 19.6 mph N/A   Overcast
5:54 AM 24.1 °F 15.2 °F -2.9 °F 31% 30.19 in 10.0 mi SE 8.1 mph 19.6 mph N/A   Overcast
6:54 AM 24.1 °F 13.7 °F -2.9 °F 31% 30.17 in 10.0 mi SE 10.4 mph - N/A   Mostly Cloudy
7:54 AM 24.1 °F 13.1 °F -2.0 °F 32% 30.17 in 10.0 mi SE 11.5 mph 21.9 mph N/A   Overcast
8:54 AM 24.1 °F 12.5 °F -0.9 °F 34% 30.17 in 10.0 mi SSE 12.7 mph 24.2 mph N/A   Overcast
9:54 AM 26.1 °F 15.6 °F -0.0 °F 32% 30.17 in 10.0 mi SE 11.5 mph - N/A   Overcast
10:54 AM 30.9 °F 21.7 °F -0.0 °F 27% 30.14 in 10.0 mi South 11.5 mph 20.7 mph N/A   Overcast
11:54 AM 30.0 °F 21.1 °F -0.0 °F 28% 30.11 in 10.0 mi SE 10.4 mph - N/A   Overcast
12:54 PM 28.9 °F 18.2 °F 1.9 °F 32% 30.08 in 10.0 mi SE 13.8 mph 21.9 mph N/A   Overcast
1:29 PM 27.0 °F 16.1 °F 14.0 °F 58% 29.99 in 2.0 mi SSE 12.7 mph - 0.00 in Snow Light Snow
1:35 PM 26.1 °F 15.0 °F 15.1 °F 63% 29.99 in 1.8 mi SSE 12.7 mph 18.4 mph 0.00 in Snow Light Snow
1:42 PM 26.1 °F 16.8 °F 16.0 °F 66% 29.99 in 1.2 mi SSE 9.2 mph - 0.00 in Snow Light Snow
1:54 PM 25.0 °F 15.5 °F 17.1 °F 72% 30.04 in 1.8 mi SSE 9.2 mph - 0.01 in Snow Light Snow
2:01 PM 25.0 °F 13.6 °F 17.1 °F 72% 29.97 in 2.5 mi SSE 12.7 mph - 0.00 in Snow Light Snow
2:09 PM 25.0 °F 14.8 °F 16.0 °F 69% 29.98 in 7.0 mi SE 10.4 mph - 0.00 in Snow Light Snow
2:28 PM 25.0 °F 14.8 °F 14.0 °F 63% 29.97 in 2.0 mi SE 10.4 mph - 0.00 in Snow Light Snow
2:42 PM 24.1 °F 15.2 °F 16.0 °F 71% 29.95 in 1.8 mi SE 8.1 mph 18.4 mph 0.01 in Snow Light Snow
2:48 PM 24.8 °F 14.0 °F 15.8 °F 69% 29.94 in 3.0 mi SE 11.5 mph - 0.02 in Snow Light Snow
2:54 PM 24.1 °F 14.4 °F 16.0 °F 71% 29.99 in 6.0 mi ESE 9.2 mph - 0.02 in Snow Light Snow
3:54 PM 23.0 °F 12.4 °F 16.0 °F 74% 29.98 in 2.0 mi SE 10.4 mph 18.4 mph 0.04 in   Overcast
4:54 PM 21.9 °F 11.0 °F 18.0 °F 85% 29.95 in 2.0 mi SE 10.4 mph - 0.13 in   Overcast
5:04 PM 21.9 °F 11.7 °F 18.0 °F 85% 29.89 in 1.8 mi SSE 9.2 mph - 0.03 in   Overcast
5:46 PM 21.9 °F 11.0 °F 17.1 °F 82% 29.89 in 2.5 mi SSE 10.4 mph - 0.15 in   Overcast
5:54 PM 21.9 °F 10.4 °F 17.1 °F 82% 29.94 in 2.5 mi SSE 11.5 mph - 0.16 in   Overcast
6:24 PM 21.9 °F 11.0 °F 18.0 °F 85% 29.87 in 3.0 mi SSE 10.4 mph - 0.06 in   Overcast
6:54 PM 21.9 °F 11.0 °F 18.0 °F 85% 29.93 in 2.0 mi SSE 10.4 mph - 0.09 in   Overcast
7:21 PM 21.9 °F 11.0 °F 17.1 °F 82% 29.85 in 2.0 mi SSE 10.4 mph - 0.02 in   Overcast
7:37 PM 21.9 °F 11.0 °F 18.0 °F 85% 29.84 in 2.0 mi SSE 10.4 mph - 0.03 in Rain Light Freezing Rain
7:54 PM 23.0 °F 13.1 °F 19.9 °F 88% 29.89 in 2.0 mi SSE 9.2 mph - 0.05 in Rain Light Freezing Rain
8:01 PM 23.0 °F 12.4 °F 19.9 °F 88% 29.83 in 3.0 mi SE 10.4 mph - 0.01 in Rain Light Freezing Rain
8:06 PM 23.0 °F 11.7 °F 19.9 °F 88% 29.83 in 3.0 mi SSE 11.5 mph - 0.02 in Rain Light Freezing Rain
8:11 PM 23.0 °F 11.7 °F 19.9 °F 88% 29.83 in 3.0 mi SSE 11.5 mph - 0.02 in Rain Light Freezing Rain
8:34 PM 24.1 °F 15.2 °F 21.0 °F 88% 29.82 in 3.0 mi SE 8.1 mph - 0.06 in Rain Light Freezing Rain
8:54 PM 26.1 °F 19.4 °F 23.0 °F 88% 29.86 in 3.0 mi ESE 5.8 mph - 0.10 in Rain Light Freezing Rain
9:03 PM 27.0 °F 20.5 °F 24.1 °F 89% 29.81 in 4.0 mi Variable 5.8 mph - 0.02 in Rain Light Freezing Rain
9:45 PM 28.0 °F 19.3 °F 25.0 °F 88% 29.77 in 7.0 mi SSE 9.2 mph - 0.12 in Rain Light Freezing Rain
9:54 PM 28.0 °F 18.6 °F 25.0 °F 88% 29.80 in 7.0 mi SSE 10.4 mph - 0.13 in Rain Light Freezing Rain
10:33 PM 28.0 °F 16.5 °F 25.0 °F 88% 29.73 in 6.0 mi SSE 15.0 mph - 0.04 in Rain Light Freezing Rain
10:37 PM 28.0 °F 18.1 °F 25.0 °F 88% 29.73 in 7.0 mi SSE 11.5 mph 19.6 mph 0.04 in   Overcast
10:44 PM 28.0 °F 19.3 °F 26.1 °F 92% 29.75 in 10.0 mi South 9.2 mph 18.4 mph 0.04 in   Overcast
10:54 PM 28.0 °F 18.6 °F 26.1 °F 92% 29.77 in 9.0 mi SSE 10.4 mph - 0.04 in Rain Light Freezing Rain
11:54 PM 28.9 °F 19.8 °F 26.1 °F 89% 29.74 in 3.0 mi SE 10.4 mph - 0.05 in Rain Light Freezing Rain